{"data":{"norad_id":63328,"epoch":"2026-05-25T04:03:21.868704Z","epoch_age_seconds":70856,"freshness":"FRESH","line1":"1 63328U 25057X   26145.16900311  .00013105  00000+0  48482-3 0  9998","line2":"2 63328  43.0004 311.1719 0001519 272.6475  87.4202 15.27584666 67520","mean_motion":15.27584666,"eccentricity":0.0001519,"inclination_deg":43.0004,"raan_deg":311.1719,"arg_perigee_deg":272.6475,"mean_anomaly_deg":87.4202,"bstar":0.00048482,"rev_number":6752,"period_min":94.266460776322,"perigee_km":481.99291234694,"apogee_km":484.07733643833,"semimajor_km":6861.1721243926,"source":"CELESTRAK","updated_at":"2026-05-25T13:38:19.960677Z"}}